When you browse on this site, cookies collect data to enhance your experience and personalize the content and advertising you see.
Visit our Privacy Policy to learn more. By continuing to use the site, you agree to this use of cookies and data.
  • In Hungary
  • List of Countries
  • For 7 days
  • Water Temperature
  • Satellite Maps
  • Weather Map
  • News
  • Weather Widgets
  • user-avatar
    Login

    Hourly Weather Coslada

    Today, 15 December, Saturday

    Time Temperature Precipitation Wind Pressure Humidity
    00:00 +6°C° 0 mm 1 mps 714 mmHg 76%
    01:00 +6°C° 0 mm 1 mps 714 mmHg 77%
    02:00 +6°C° 0 mm 1 mps 714 mmHg 78%
    03:00 +6°C° 0 mm 1 mps 714 mmHg 79%
    04:00 +6°C° 0 mm 1 mps 714 mmHg 81%
    05:00 +6°C° 0 mm 1 mps 714 mmHg 83%
    06:00 +5°C° 0 mm 2 mps 714 mmHg 85%
    07:00 +6°C° 0 mm 2 mps 714 mmHg 84%
    08:00 +6°C° 0 mm 2 mps 714 mmHg 83%
    09:00 +7°C° 0 mm 2 mps 714 mmHg 82%
    10:00 +8°C° 0 mm 2 mps 714 mmHg 79%
    11:00 +9°C° 0 mm 2 mps 714 mmHg 76%
    12:00 +11°C° 0 mm 3 mps 714 mmHg 73%
    13:00 +11°C° 0 mm 3 mps 714 mmHg 73%
    14:00 +12°C° 0 mm 3 mps 713 mmHg 73%
    15:00 +12°C° 0 mm 4 mps 713 mmHg 72%
    16:00 +11°C° 0 mm 3 mps 713 mmHg 78%
    17:00 +10°C° 0 mm 3 mps 713 mmHg 83%
    18:00 +9°C° 0 mm 3 mps 713 mmHg 89%
    19:00 +9°C° 0 mm 3 mps 713 mmHg 90%
    20:00 +9°C° 0 mm 3 mps 713 mmHg 91%
    21:00 +8°C° 0 mm 3 mps 713 mmHg 92%
    22:00 +8°C° 0 mm 3 mps 712 mmHg 92%
    23:00 +8°C° 0 mm 3 mps 712 mmHg 92%

    Tomorrow, 16 December, Sunday

    Time Temperature Precipitation Wind Pressure Humidity
    00:00 +7°C° 0 mm 2 mps 712 mmHg 92%
    01:00 +7°C° 0.2 mm 2 mps 712 mmHg 93%
    02:00 +7°C° 0.2 mm 3 mps 711 mmHg 93%
    03:00 +8°C° 0.2 mm 3 mps 711 mmHg 93%
    04:00 +8°C° 0.6 mm 3 mps 710 mmHg 93%
    05:00 +8°C° 0.6 mm 3 mps 710 mmHg 92%
    06:00 +8°C° 0.6 mm 3 mps 710 mmHg 92%
    07:00 +8°C° 0.9 mm 3 mps 710 mmHg 91%
    08:00 +8°C° 0.9 mm 3 mps 710 mmHg 90%
    09:00 +7°C° 0.9 mm 4 mps 709 mmHg 90%
    10:00 +8°C° 1.4 mm 4 mps 709 mmHg 89%
    11:00 +8°C° 1.4 mm 5 mps 709 mmHg 88%
    12:00 +9°C° 1.4 mm 6 mps 709 mmHg 87%
    13:00 +9°C° 0 mm 6 mps 710 mmHg 81%
    14:00 +10°C° 0 mm 6 mps 710 mmHg 76%
    15:00 +11°C° 0 mm 6 mps 710 mmHg 70%
    16:00 +10°C° 0.1 mm 6 mps 710 mmHg 74%
    17:00 +9°C° 0.1 mm 5 mps 711 mmHg 77%
    18:00 +8°C° 0.1 mm 4 mps 711 mmHg 80%
    19:00 +7°C° 0 mm 4 mps 712 mmHg 80%
    20:00 +8°C° 0 mm 3 mps 713 mmHg 80%
    21:00 +7°C° 0 mm 3 mps 713 mmHg 80%
    22:00 +7°C° 0 mm 3 mps 714 mmHg 79%
    23:00 +6°C° 0 mm 2 mps 714 mmHg 79%

    Day after tomorrow, 17 December, Monday

    Time Temperature Precipitation Wind Pressure Humidity
    00:00 +6°C° 0 mm 2 mps 714 mmHg 78%
    01:00 +5°C° 0 mm 2 mps 714 mmHg 79%
    02:00 +5°C° 0 mm 2 mps 715 mmHg 80%
    03:00 +5°C° 0 mm 1 mps 715 mmHg 81%
    04:00 +5°C° 0 mm 1 mps 715 mmHg 81%
    05:00 +5°C° 0 mm 1 mps 715 mmHg 81%
    06:00 +4°C° 0 mm 1 mps 715 mmHg 81%
    07:00 +5°C° 0 mm 1 mps 716 mmHg 78%
    08:00 +6°C° 0 mm 1 mps 716 mmHg 75%
    09:00 +6°C° 0 mm 1 mps 717 mmHg 71%
    10:00 +7°C° 0 mm 1 mps 716 mmHg 65%
    11:00 +9°C° 0 mm 1 mps 716 mmHg 59%
    12:00 +10°C° 0 mm 1 mps 716 mmHg 53%
    13:00 +10°C° 0 mm 1 mps 716 mmHg 52%
    14:00 +10°C° 0 mm 1 mps 715 mmHg 50%
    15:00 +11°C° 0 mm 1 mps 714 mmHg 49%
    16:00 +9°C° 0 mm 1 mps 714 mmHg 53%
    17:00 +8°C° 0 mm 1 mps 714 mmHg 58%
    18:00 +7°C° 0 mm 1 mps 714 mmHg 63%
    19:00 +7°C° 0 mm 1 mps 714 mmHg 64%
    20:00 +7°C° 0 mm 1 mps 715 mmHg 64%
    21:00 +6°C° 0 mm 1 mps 715 mmHg 64%
    22:00 +6°C° 0 mm 1 mps 714 mmHg 65%
    23:00 +6°C° 0 mm 1 mps 714 mmHg 65%

    18 December, Tuesday

    Time Temperature Precipitation Wind Pressure Humidity
    00:00 +6°C° 0 mm 1 mps 714 mmHg 65%
    01:00 +5°C° 0 mm 1 mps 713 mmHg 66%
    02:00 +4°C° 0 mm 2 mps 713 mmHg 67%
    03:00 +4°C° 0 mm 2 mps 713 mmHg 68%
    04:00 +4°C° 0 mm 2 mps 712 mmHg 69%
    05:00 +3°C° 0 mm 2 mps 712 mmHg 71%
    06:00 +3°C° 0 mm 2 mps 712 mmHg 73%
    07:00 +4°C° 0 mm 2 mps 712 mmHg 71%
    08:00 +5°C° 0 mm 2 mps 712 mmHg 69%
    09:00 +5°C° 0 mm 2 mps 712 mmHg 67%
    10:00 +7°C° 0 mm 2 mps 711 mmHg 64%
    11:00 +8°C° 0 mm 3 mps 711 mmHg 61%
    12:00 +9°C° 0 mm 3 mps 710 mmHg 58%
    13:00 +9°C° 0 mm 3 mps 710 mmHg 58%
    14:00 +10°C° 0 mm 3 mps 709 mmHg 58%
    15:00 +10°C° 0 mm 3 mps 709 mmHg 59%
    16:00 +9°C° 0.2 mm 2 mps 709 mmHg 63%
    17:00 +9°C° 0.2 mm 2 mps 709 mmHg 68%
    18:00 +8°C° 0.2 mm 2 mps 709 mmHg 73%
    19:00 +8°C° 0.2 mm 2 mps 710 mmHg 76%
    20:00 +8°C° 0.2 mm 2 mps 710 mmHg 80%
    21:00 +8°C° 0.2 mm 3 mps 710 mmHg 84%
    22:00 +8°C° 0.2 mm 3 mps 710 mmHg 86%
    23:00 +8°C° 0.2 mm 3 mps 711 mmHg 88%

    19 December, Wednesday

    Time Temperature Precipitation Wind Pressure Humidity
    00:00 +7°C° 0.2 mm 3 mps 711 mmHg 90%
    01:00 +7°C° 0 mm 2 mps 711 mmHg 90%
    02:00 +6°C° 0 mm 2 mps 711 mmHg 89%
    03:00 +5°C° 0 mm 2 mps 711 mmHg 88%
    04:00 +4°C° 0 mm 2 mps 712 mmHg 87%
    05:00 +4°C° 0 mm 2 mps 712 mmHg 85%
    06:00 +4°C° 0 mm 1 mps 712 mmHg 84%
    07:00 +5°C° 0 mm 1 mps 713 mmHg 81%
    08:00 +6°C° 0 mm 1 mps 713 mmHg 79%
    09:00 +5°C° 0 mm 2 mps 714 mmHg 76%
    10:00 +7°C° 0 mm 2 mps 714 mmHg 70%
    11:00 +8°C° 0 mm 2 mps 714 mmHg 64%
    12:00 +9°C° 0 mm 2 mps 714 mmHg 58%
    13:00 +10°C° 0 mm 3 mps 713 mmHg 57%
    14:00 +10°C° 0 mm 3 mps 713 mmHg 55%
    15:00 +10°C° 0 mm 3 mps 713 mmHg 54%
    16:00 +9°C° 0 mm 3 mps 713 mmHg 60%
    17:00 +8°C° 0 mm 3 mps 713 mmHg 66%
    18:00 +7°C° 0 mm 2 mps 714 mmHg 71%
    19:00 +6°C° 0 mm 2 mps 714 mmHg 74%
    20:00 +6°C° 0 mm 2 mps 714 mmHg 76%
    21:00 +6°C° 0 mm 2 mps 715 mmHg 78%
    22:00 +5°C° 0 mm 2 mps 715 mmHg 79%
    23:00 +5°C° 0 mm 2 mps 715 mmHg 81%

    20 December, Thursday

    Time Temperature Precipitation Wind Pressure Humidity
    00:00 +6°C° 0 mm 1 mps 715 mmHg 83%
    01:00 +5°C° 0 mm 1 mps 715 mmHg 83%
    02:00 +5°C° 0 mm 1 mps 715 mmHg 84%
    03:00 +5°C° 0 mm 1 mps 715 mmHg 84%
    04:00 +5°C° 0 mm 1 mps 715 mmHg 85%
    05:00 +4°C° 0 mm 1 mps 715 mmHg 85%
    06:00 +4°C° 0 mm 1 mps 715 mmHg 85%
    07:00 +5°C° 0 mm 1 mps 716 mmHg 82%
    08:00 +6°C° 0 mm 1 mps 716 mmHg 80%
    09:00 +6°C° 0 mm 1 mps 716 mmHg 77%
    10:00 +8°C° 0 mm 1 mps 716 mmHg 72%
    11:00 +9°C° 0 mm 1 mps 716 mmHg 66%
    12:00 +10°C° 0 mm 1 mps 716 mmHg 61%
    13:00 +10°C° 0 mm 1 mps 716 mmHg 59%
    14:00 +11°C° 0 mm 1 mps 715 mmHg 58%
    15:00 +11°C° 0 mm 1 mps 715 mmHg 56%
    16:00 +10°C° 0 mm 1 mps 715 mmHg 62%
    17:00 +8°C° 0 mm 1 mps 716 mmHg 68%
    18:00 +7°C° 0 mm 1 mps 716 mmHg 74%
    19:00 +7°C° 0 mm 1 mps 716 mmHg 75%
    20:00 +6°C° 0 mm 1 mps 717 mmHg 77%
    21:00 +6°C° 0 mm 1 mps 717 mmHg 78%
    22:00 +6°C° 0 mm 1 mps 717 mmHg 78%
    23:00 +5°C° 0 mm 0 mps 717 mmHg 79%
    Show more